Simultaneous Nadir Overpasses (SNOs) Predictions

Prediction of SNOs between METOP-A and TERRA Satellite Orbit:

Table of predicted SNOs for the next 14.0 days since TLE Epoch: 11/7/2015
Index Date (METOP-A) Time (METOP-A) Lat,Lon (METOP-A) SZA (METOP-A ) Date (TERRA) Time (TERRA) Lat,Lon (TERRA) SZA (TERRA ) Distance(km) Time Diff (sec)
1 11/07/2015 06:34:43 81.28, 128.15 100.57 11/07/2015 06:35:14 81.27, 128.00 100.56 2.79 31
2 11/07/2015 07:25:23 -81.29, -64.13 79.38 11/07/2015 07:24:40 -81.29, -64.06 79.40 1.18 43
3 11/10/2015 02:09:07 81.28,-165.18 101.40 11/10/2015 02:09:28 81.29,-165.26 101.41 1.47 21
4 11/10/2015 02:59:48 -81.28, 2.19 78.59 11/10/2015 02:58:55 -81.28, 2.32 78.60 2.19 53
5 11/12/2015 21:43:33 81.28, -98.94 102.15 11/12/2015 21:43:44 81.28, -99.03 102.14 1.71 11
6 11/
